Regional Weather Roundup
Issued by NWS

Home | Current Version | Previous Version | Graphics & Text | Print | Product List | Glossary Off
Versions: 1 2 3 4 5 6 7 8 9 10 11 12 13 14 15 16 17 18 19 20 21 22 23 24 25 26 27 28 29 30 31 32 33 34 35 36 37 38 39 40 41 42 43 44 45 46 47 48 49 50

000
ASUS43 KMPX 290801
RWRMN
WEATHER ROUNDUP FOR MINNESOTA
NATIONAL WEATHER SERVICE TWIN CITIES/CHANHASSEN MN
300 AM CDT MON MAY 29 2017


NOTE: "FAIR" INDICATES FEW OR NO CLOUDS BELOW 12,000 FEET WITH NO
SIGNIFICANT WEATHER AND/OR OBSTRUCTIONS TO VISIBILITY. N/A MEANS
CURRENT SKY AND/OR WEATHER CONDITIONS ARE NOT AVAILABLE.

MNZ060>063-068>070-290900-
   Twin Cities Metro

CITY           SKY/WX    TMP DP  RH WIND       PRES   REMARKS
TWIN CITIES    CLOUDY    56  46  69 W14G20    29.72R
ST PAUL        CLOUDY    56  49  77 NW16G28   29.71S
CRYSTAL        CLOUDY    55  46  71 NW15      29.71S
BLAINE         PTCLDY    55  50  82 W13       29.71S
LAKEVILLE      PTCLDY    54  46  76 W12G18    29.73S
EDEN PRAIRIE   PTCLDY    56  46  69 W12       29.73R
SOUTH ST PAUL  MOCLDY    57  47  69 W12G20    29.71S
LAKE ELMO      CLOUDY    54  50  87 W9        29.71S
$$
MNZ001>005-007-008-013>017-022>024-027-028-290900-
   Northwest Minnesota

CITY           SKY/WX    TMP DP  RH WIND       PRES   REMARKS
BEMIDJI        CLOUDY    48  46  93 NW9G17    29.71S
HALLOCK        LGT RAIN  48  48 100 NW15      29.78S
ROSEAU         CLOUDY    48  45  87 NW8       29.73R
WARROAD        CLOUDY    48  45  87 NW13      29.72S
THIEF RVR FALL LGT RAIN  48  46  93 NW16      29.76S
CROOKSTON      CLOUDY    52  48  87 NW15      29.78S
FOSSTON        DRIZZLE   46  46 100 NW13G18   29.75S
DETROIT LAKES  LGT RAIN  50  46  87 NW14      29.78S
MOORHEAD       CLOUDY    52  48  87 NW14      29.81S
PARK RAPIDS    LGT RAIN  50  45  83 NW14      29.73S
MAHNOMEN       LGT RAIN  48  47  96 NW12      29.76S
$$
MNZ006-009>011-018-025>026-290900-
   North Central Minnesota

CITY           SKY/WX    TMP DP  RH WIND       PRES   REMARKS
BAUDETTE       RAIN      49  48  97 NW12      29.68S FOG
FLAG ISLAND    LGT RAIN  48  46  93 NW20      29.68S
INTL FALLS     LGT RAIN  51  48  89 NW9       29.64R
WASKISH        CLOUDY    50  46  87 NW9       29.70R
BIG FORK       CLOUDY    50  46  87 NW6       29.66S
LONGVILLE      RAIN      50  48  93 W6        29.70R
GRAND RAPIDS   CLOUDY    51  49  92 NW12      29.68S
CRANE LAKE     DRIZZLE   52  50  93 CALM      29.62S
COOK           RAIN      52  50  93 W7        29.63S
WALKER         CLOUDY    49  46  91 W10       29.71S
$$
MNZ012-019>021-037-290900-
   Northeast Minnesota

CITY           SKY/WX    TMP DP  RH WIND       PRES   REMARKS
DULUTH         CLOUDY    52  49  89 W12       29.62S
ELY            DRIZZLE   50  48  93 NW3       29.59F
HIBBING        CLOUDY    51  49  92 NW12      29.63S
EVELETH        LGT RAIN  53  47  82 W8        29.63S
DULUTH HARBOR  CLOUDY    55  52  88 SW6       29.63S
TWO HARBORS    MOCLDY    54  48  82 W6        29.59R
SILVER BAY     DRIZZLE   54  50  87 CALM      29.57S
GRAND MARAIS     N/A     43  43 100 CALM      29.56F
G MARAIS ARPRT CLOUDY    48  45  87 CALM      29.57S
$$
MNZ029>031-032-039>041-046>048-054>057-064-290900-
   West Central Minnesota

CITY           SKY/WX    TMP DP  RH WIND       PRES   REMARKS
FERGUS FALLS   CLOUDY    52  46  82 NW17      29.79R
WHEATON        CLOUDY    54  46  76 W10       29.84S
MORRIS         MOCLDY    54  46  76 NW12      29.80S
ALEXANDRIA     CLOUDY    52  46  80 NW14      29.78S
ELBOW LAKE     CLOUDY    52  47  84 NW13      29.81R
WADENA         CLOUDY    50  45  81 NW7       29.75R
GLENWOOD       PTCLDY    52  46  82 NW15G25   29.79R
APPLETON       PTCLDY    54  45  71 W9        29.81F
BENSON         PTCLDY    52  46  82 NW10      29.82S
ORTONVILLE     CLOUDY    55  45  67 NW16      29.82F
MADISON        PTCLDY    55  46  71 NW14      29.83S
WILLMAR        MOCLDY    54  46  76 W8        29.80S
$$
MNZ033>034-036-042>043-049>051-058-059-290900-
   Central Minnesota

CITY           SKY/WX    TMP DP  RH WIND       PRES   REMARKS
ST CLOUD       CLOUDY    52  48  86 NW10      29.73S
SAUK CENTRE    PTSUNNY   51  47  86 W12G17    29.77S
PAYNESVILLE    CLOUDY    53  47  80 W10       29.77S
AITKIN         CLOUDY    52  48  87 W5        29.68R
PINE RIVER     RAIN      50  48  93 W6        29.75S
BRAINERD       CLOUDY    52  47  83 W10       29.72S
STAPLES        CLOUDY    48  45  87 W9        29.74R
LONG PRAIRIE   CLOUDY    50  46  87 W9        29.76S
LITTLE FALLS   CLOUDY    50  45  81 W8        29.74R
LITCHFIELD     PTCLDY    55  48  76 W8        29.77S
BUFFALO        CLOUDY    54  47  77 W10       29.75R
MAPLE LAKE     CLOUDY    55  49  81 W8G16     29.75S
HUTCHINSON     CLOUDY    54  48  78 W16       29.78S
$$
MNZ037-044-045-052-053-290900-
   East Central Minnesota

CITY           SKY/WX    TMP DP  RH WIND       PRES   REMARKS
PRINCETON      CLOUDY    54  52  94 W12       29.72S
MORA           CLOUDY    50  46  87 W6        29.71S
CAMBRIDGE      CLOUDY    55  46  71 W8        29.69S
RUSH CITY      CLOUDY    52  49  89 W6        29.69S
MOOSE LAKE     CLOUDY    52  46  82 W8        29.65S
HINCKLEY       CLOUDY    52  50  93 W7        29.68S
CLOQUET        CLOUDY    52  48  87 W8        29.64S
MCGREGOR       CLOUDY    52  48  87 W8        29.68R
$$
MNZ071>073-080-081-089-090-097-098-290900-
   Southwest Minnesota

CITY           SKY/WX    TMP DP  RH WIND       PRES   REMARKS
MONTEVIDEO     CLEAR     52  45  76 NW9       29.81F
CANBY          CLEAR     53  46  75 NW17      29.86S
MARSHALL       CLEAR     50  44  80 W13       29.84S
REDWOOD FALLS  CLEAR     52  43  71 W13       29.80F
OLIVIA         PTCLDY    50  43  76 W9        29.79F
PIPESTONE      CLEAR     48  43  81 W7        29.87R
WINDOM         CLEAR     50  45  81 W9        29.85R
WORTHINGTON    PTCLDY    50  45  83 W7        29.87S
JACKSON        PTCLDY    52  43  71 W12       29.86R
TRACY          CLEAR     52  45  77 W6        29.85R
SLAYTON        CLEAR     51  44  78 W8        29.87F
$$
MNZ065>067-074>077-082>085-091>093-290900-
   South Central Minnesota

CITY           SKY/WX    TMP DP  RH WIND       PRES   REMARKS
MANKATO        CLEAR     55  45  68 W14       29.79S
NEW ULM        CLEAR     52  43  71 W10       29.80S
ST JAMES       CLEAR     54  45  71 W10       29.83S
FAIRMONT       CLEAR     54  44  69 NW15      29.83S
GLENCOE        PTCLDY    54  49  84 W10       29.76S
FARIBAULT      PTCLDY    54  46  76 W13G21    29.76R
OWATONNA       CLEAR     54  45  71 W17G25    29.77R
WASECA         CLEAR     54  45  71 W16G25    29.80R
ALBERT LEA     CLEAR     57  46  67 W12G17    29.79R
$$
MNZ078>079-086>088-094>096-290900-
   Southeast Minnesota

CITY           SKY/WX    TMP DP  RH WIND       PRES   REMARKS
ROCHESTER      CLEAR     53  44  71 W15       29.75F
RED WING       PTCLDY    52  48  87 W6        29.70S
STANTON        PTCLDY    56  46  70 W14       29.73R
DODGE CENTER   CLEAR     54  43  66 W16       29.75S
WINONA         CLEAR     55  43  62 W6        29.72S
AUSTIN         CLEAR     54  45  71 W13       29.77S
PRESTON        CLEAR     53  42  67 W13       29.76S
$$
ABBREVIATIONS USED IN REMARKS
   TC - TEMPERATURES IN CELSIUS
  WCI - WIND CHILL INDEX
   HX - HEAT INDEX
  VSB - VISIBILITY
$$



USA.gov is the U.S. government's official web portal to all federal, state and local government web resources and services.